Cairo, IL

5:22 PM CDT on April 23, 2017 (GMT -0500)
Cairo Regional

Weather History for KCIR - April, 2013

Change the Weather History Date:

Sunday, April 21, 2013

  Actual Average Record
Temperature  
Mean Temperature 56 °F -  
Max Temperature 68 °F 69 °F 91 °F (1987)
Min Temperature 44 °F 52 °F 40 °F (1950)
Degree Days  
Heating Degree Days 9    
Growing Degree Days 6 (Base 50)    
Moisture  
Dew Point 35 °F    
Average Humidity 46    
Maximum Humidity 69    
Minimum Humidity 27    
Precipitation  
Precipitation 0.00 in - - ()
Sea Level Pressure  
Sea Level Pressure 30.33 in    
Wind  
Wind Speed 7 mph (ENE)    
Max Wind Speed 10 mph    
Max Gust Speed 9 mph    
Visibility 10 miles    
Events      
Averages and records for this station are not official NWS values.
T = Trace of Precipitation, MM = Missing Value Source: NWS Daily Summary

Daily Weather History Graph

Daily Weather History Graph

Search for Another Location

Airport or City:

Trip Planner

Search our weather history database for the weather conditions in past years. The results will help you decide how hot, cold, wet, or windy it might be!

Date:

Astronomy

Apr. 21, 2013 Rise Set
Actual Time 6:14 AM CDT 7:37 PM CDT
Civil Twilight 5:47 AM CDT 8:04 PM CDT
Nautical Twilight 5:14 AM CDT 8:37 PM CDT
Astronomical Twilight 4:40 AM CDT 9:11 PM CDT
Moon 3:28 PM CDT (4/21) 3:30 AM CDT (4/21)
Length of Visible Light 14h 17m
Length of Day
13h 23m
Waxing Gibbous, 80% of the Moon is Illuminated
Apr 21
Waxing Gibbous
Apr 25
Full
May 2
Last Quarter
May 9
New
May 17
First Quarter

Hourly Weather History & Observations

Time (CDT) Temp. Windchill Dew Point Humidity Pressure Visibility Wind Dir Wind Speed Gust Speed Precip Events Conditions
12:15 AM 49.5 °F - 35.2 °F 58% 30.33 in 10.0 mi ENE 5.8 mph - N/A   Clear
12:35 AM 49.6 °F - 35.6 °F 59% 30.33 in 10.0 mi ENE 8.1 mph - N/A   Clear
12:55 AM 49.1 °F - 35.6 °F 60% 30.33 in 10.0 mi ENE 8.1 mph - N/A   Clear
1:15 AM 47.7 °F - 36.0 °F 64% 30.34 in 10.0 mi NE 5.8 mph - N/A   Clear
1:35 AM 47.3 °F - 35.6 °F 64% 30.34 in 10.0 mi NE 5.8 mph - N/A   Clear
4:15 AM 46.4 °F 42.9 °F 33.1 °F 60% 30.35 in 10.0 mi ENE 6.9 mph - N/A   Clear
4:35 AM 45.9 °F 41.7 °F 33.1 °F 61% 30.35 in 10.0 mi ENE 8.1 mph - N/A   Clear
4:55 AM 45.5 °F 41.3 °F 33.3 °F 62% 30.35 in 10.0 mi ENE 8.1 mph - N/A   Clear
5:15 AM 45.7 °F 42.0 °F 32.9 °F 61% 30.35 in 10.0 mi ENE 6.9 mph - N/A   Clear
5:35 AM 44.6 °F 40.2 °F 32.7 °F 63% 30.36 in 10.0 mi ENE 8.1 mph - N/A   Clear
5:55 AM 44.8 °F 41.6 °F 32.9 °F 63% 30.36 in 10.0 mi ENE 5.8 mph - N/A   Clear
6:15 AM 45.0 °F 40.6 °F 32.9 °F 63% 30.37 in 10.0 mi NE 8.1 mph - N/A   Clear
6:35 AM 44.8 °F 41.0 °F 32.9 °F 63% 30.38 in 10.0 mi ENE 6.9 mph - N/A   Clear
6:55 AM 45.5 °F 42.5 °F 33.3 °F 62% 30.39 in 10.0 mi ENE 5.8 mph - N/A   Clear
7:15 AM 46.8 °F - 33.8 °F 61% 30.40 in 10.0 mi ENE 6.9 mph - N/A   Clear
7:35 AM 47.8 °F - 34.2 °F 59% 30.40 in 10.0 mi ENE 10.4 mph - N/A   Clear
7:55 AM 48.2 °F - 33.8 °F 58% 30.41 in 10.0 mi NE 9.2 mph - N/A   Clear
8:15 AM 49.3 °F - 34.2 °F 56% 30.41 in 10.0 mi ENE 5.8 mph - N/A   Clear
8:35 AM 50.5 °F - 34.0 °F 53% 30.41 in 10.0 mi East 8.1 mph - N/A   Clear
8:55 AM 52.2 °F - 34.9 °F 52% 30.41 in 10.0 mi ENE 9.2 mph - N/A   Clear
9:15 AM 52.7 °F - 35.2 °F 52% 30.41 in 10.0 mi East 9.2 mph - N/A   Clear
9:35 AM 53.6 °F - 34.7 °F 49% 30.41 in 10.0 mi ENE 8.1 mph - N/A   Clear
9:55 AM 55.0 °F - 34.5 °F 46% 30.41 in 10.0 mi ENE 9.2 mph - N/A   Clear
10:15 AM 57.0 °F - 34.9 °F 43% 30.41 in 10.0 mi East 6.9 mph - N/A   Clear
10:35 AM 57.6 °F - 35.8 °F 44% 30.41 in 10.0 mi ENE 4.6 mph - N/A   Clear
10:55 AM 59.0 °F - 36.0 °F 42% 30.41 in 10.0 mi ENE 5.8 mph - N/A   Clear
11:15 AM 60.4 °F - 36.7 °F 41% 30.41 in 10.0 mi East 8.1 mph - N/A   Clear
11:35 AM 61.0 °F - 36.0 °F 39% 30.40 in 10.0 mi East 6.9 mph - N/A   Clear
11:55 AM 62.1 °F - 36.0 °F 38% 30.39 in 10.0 mi ENE 8.1 mph - N/A   Clear
12:15 PM 63.0 °F - 36.0 °F 37% 30.38 in 10.0 mi East 8.1 mph - N/A   Clear
12:35 PM 63.1 °F - 35.4 °F 36% 30.38 in 10.0 mi East 5.8 mph - N/A   Clear
12:55 PM 64.6 °F - 35.4 °F 34% 30.36 in 10.0 mi East 8.1 mph - N/A   Clear
1:15 PM 64.8 °F - 35.1 °F 33% 30.35 in 10.0 mi ENE 9.2 mph - N/A   Clear
1:35 PM 64.4 °F - 34.7 °F 33% 30.35 in 10.0 mi East 5.8 mph - N/A   Clear
1:55 PM 65.7 °F - 34.7 °F 32% 30.34 in 10.0 mi NE 5.8 mph - N/A   Clear
2:15 PM 65.7 °F - 34.7 °F 32% 30.33 in 10.0 mi NE 3.5 mph - N/A   Clear
2:35 PM 65.8 °F - 34.5 °F 31% 30.32 in 10.0 mi East 8.1 mph - N/A   Clear
2:55 PM 66.4 °F - 34.7 °F 31% 30.31 in 10.0 mi NNE 6.9 mph - N/A   Clear
3:15 PM 66.2 °F - 34.5 °F 31% 30.30 in 10.0 mi East 3.5 mph - N/A   Clear
3:35 PM 67.1 °F - 34.7 °F 30% 30.29 in 10.0 mi NE 3.5 mph - N/A   Clear
3:55 PM 67.5 °F - 34.7 °F 30% 30.28 in 10.0 mi ENE 8.1 mph - N/A   Clear
4:15 PM 67.8 °F - 35.2 °F 30% 30.27 in 10.0 mi NE 5.8 mph 9.2 mph N/A   Clear
4:35 PM 68.0 °F - 34.3 °F 29% 30.26 in 10.0 mi ENE 6.9 mph - N/A   Clear
4:55 PM 67.8 °F - 34.5 °F 29% 30.26 in 10.0 mi ENE 9.2 mph - N/A   Clear
5:15 PM 67.1 °F - 33.8 °F 29% 30.25 in 10.0 mi NE 8.1 mph - N/A   Clear
5:35 PM 66.7 °F - 34.0 °F 30% 30.25 in 10.0 mi NE 6.9 mph - N/A   Clear
5:55 PM 68.0 °F - 33.3 °F 28% 30.25 in 10.0 mi ENE 9.2 mph - N/A   Clear
6:15 PM 66.7 °F - 31.5 °F 27% 30.25 in 10.0 mi ENE 8.1 mph - N/A   Clear
6:35 PM 64.6 °F - 31.5 °F 29% 30.26 in 10.0 mi ENE 6.9 mph - N/A   Clear
6:55 PM 64.4 °F - 32.2 °F 30% 30.26 in 10.0 mi ENE 6.9 mph - N/A   Clear
7:15 PM 64.8 °F - 32.9 °F 30% 30.25 in 10.0 mi East 6.9 mph - N/A   Clear
7:35 PM 62.8 °F - 33.4 °F 33% 30.26 in 10.0 mi East 5.8 mph - N/A   Clear
7:55 PM 60.3 °F - 34.2 °F 38% 30.26 in 10.0 mi East 5.8 mph - N/A   Clear
8:15 PM 59.2 °F - 34.5 °F 40% 30.26 in 10.0 mi East 4.6 mph - N/A   Clear
8:35 PM 58.3 °F - 34.2 °F 40% 30.27 in 10.0 mi ENE 5.8 mph - N/A   Clear
8:55 PM 57.0 °F - 35.6 °F 45% 30.27 in 10.0 mi ENE 5.8 mph - N/A   Clear
9:15 PM 57.2 °F - 36.5 °F 46% 30.27 in 10.0 mi ENE 8.1 mph - N/A   Clear
9:35 PM 57.2 °F - 35.6 °F 44% 30.27 in 10.0 mi ENE 6.9 mph - N/A   Clear
9:55 PM 54.5 °F - 36.9 °F 51% 30.28 in 10.0 mi NE 3.5 mph - N/A   Clear
10:15 PM 53.6 °F - 36.9 °F 53% 30.28 in 10.0 mi NE 4.6 mph - N/A   Clear
10:55 PM 51.8 °F - 38.1 °F 60% 30.28 in 10.0 mi ENE 3.5 mph - N/A   Clear
11:15 PM 50.9 °F - 38.1 °F 62% 30.27 in 10.0 mi Calm Calm - N/A   Clear
11:35 PM 50.9 °F - 39.4 °F 65% 30.27 in 10.0 mi Calm Calm - N/A   Clear
11:55 PM 49.3 °F - 39.6 °F 69% 30.27 in 10.0 mi Calm Calm - N/A   Clear